CAPE
0 0 0 0 0 0 0 0 0 0 0 0 0 0 0 0 0 0 0 0 0 0 0 0 0 0 0 0 0 0 0 0 0 0 0 0 0 0 0 0 0 0 0 0 0
0 0 0 0 0 0 0 0 0 0 0 0 0 0 0 0 0 0 0 0 0 0 0 0 0 0 0 0 0 0 0 0 0 0 0 0 0 0 0 0 0 0 0 0 0
0 0 0 0 0 0 0 0 0 0 0 0 0 0 0 0 0 0 0 0 0 0 0 0 0 0 0 0 0 0 0 0 0 0 0 0 0 0 0 0 0 0 0 0 0
0 0 0 0 0 0 0 0 0 0 0 0 0 0 0 0 0 0 0 0 0 0 0 0 0 0 0 0 0 0 0 0 0 0 0 0 0 0 0 0 0 0 0 0 0
0 0 0 0 0 0 0 0 0 0 0 0 0 0 0 0 0 0 0 0 0 0 0 0 0 0 0 0 0 0 0 0 0 0 0 0 0 0 0 0 0 0 0 0 0
0 0 0 0 0 0 0 0 0 0 0 0 0 0 0 0 0 0 0 0 0 0 0 0 0 0 0 0 0 0 0 0 0 0 0 0 0 0 0 0 0 0 0 0 0
0 0 0 0 0 0 0 0 0 0 0 0 0 0 0 0 0 0 0 0 0 0 0 0 0 0 0 0 0 0 0 0 0 0 0 0 0 0 0 0 0 0 0 0 0
0 0 0 0 0 0 0 0 0 0 0 0 0 0 0 0 0 0 0 0 0 0 0 0 0 0 0 0 0 0 0 0 0 0 0 0 0 0 0 0 0 0 0 0 0
0 0 0 0 0 0 0 0 0 0 0 0 0 0 0 0 0 0 0 0 0 0 0 0 0 0 0 0 0 0 0 0 0 0 0 0 0 0 0 0 0 0 0 0 0
0 0 0 0 0 0 0 0 0 0 0 0 0 0 0 0 0 0 0 0 0 0 0 0 0 0 0 0 0 0 0 0 0 0 0 0 0 0 0 0 0 0 0 0 0
0 0 0 0 0 0 0 0 0 0 0 0 0 0 0 0 0 0 0 0 0 0 0 0 0 0 0 0 0 0 0 0 0 0 0 0 0 0 0 0 0 0 0 0 0
0 0 0 0 0 0 0 0 0 0 0 0 0 0 0 0 0 0 0 0 0 0 0 0 0 0 0 0 0 0 0 0 0 0 0 0 0 0 0 0 0 0 0 0 0
0 0 0 0 0 0 0 0 0 0 0 0 0 0 0 0 0 0 0 0 0 0 0 0 0 0 0 0 0 0 0 0 0 0 0 0 0 0 0 0 0 0 0 0 0
0 0 0 0 0 0 0 0 0 0 0 0 0 0 0 0 0 0 0 0 0 0 0 0 0 0 0 0 0 0 0 0 0 0 0 0 0 0 0 0 0 0 0 0 0
0 0 0 0 0 0 0 0 0 0 0 0 0 0 0 0 0 0 0 0 0 0 0 0 0 0 0 0 0 0 0 0 0 0 0 0 0 0 0 0 0 0 0 0 0
0 0 0 0 0 0 0 0 0 0 0 0 0 0 0 0 0 0 0 0 0 0 0 0 0 0 0 0 0 0 0 0 0 0 0 0 0 0 0 0 0 0 0 0 0
0 0 0 0 0 0 0 0 0 0 0 0 0 0 0 0 0 0 0 0 0 0 0 0 0 0 0 0 0 0 0 0 0 0 0 0 0 0 0 0 0 0 0 0 0
0 0 0 0 0 0 0 0 0 0 0 0 0 0 0 0 0 0 0 0 0 0 0 0 0 0 0 0 0 0 0 0 0 0 0 0 0 0 0 0 0 0 0 0 0
0 0 0 0 0 0 0 0 0 0 0 0 0 0 0 0 0 0 0 0 0 0 0 0 0 0 0 0 0 0 0 0 0 0 0 0 0 0 0 0 0 0 0 0 0
0 0 0 0 0 0 0 0 0 0 0 0 0 0 0 0 0 0 0 0 0 0 0 0 0 0 0 0 0 0 0 0 0 0 0 0 0 0 0 0 0 0 0 0 0
0 0 0 0 0 0 0 0 0 0 0 0 0 0 0 0 0 0 0 0 0 0 0 0 0 0 0 0 0 0 0 0 0 0 0 0 0 0 0 0 0 0 0 0 0
0 0 0 0 0 0 0 0 0 0 0 0 0 0 0 0 0 0 0 0 0 0 0 0 0 0 0 0 0 0 0 0 0 0 0 0 0 0 0 0 0 0 0 0 0
0 0 0 0 0 0 0 0 0 0 0 0 0 0 0 0 0 0 0 0 0 0 0 0 0 0 0 0 0 0 0 0 0 0 0 0 0 0 0 0 0 0 0 0 0
0 0 0 0 0 0 0 0 0 0 0 0 0 0 0 0 0 0 0 0 0 0 0 0 0 0 0 0 0 0 0 0 0 0 0 0 0 0 0 0 0 0 0 0 2
0 0 0 0 0 0 0 0 0 0 0 0 0 0 0 0 0 0 0 0 0 0 0 0 0 0 0 0 0 0 0 0 0 0 0 0 0 0 0 0 0 0 0 0 1
0 0 0 0 0 0 0 0 0 0 0 0 0 0 0 0 0 0 0 0 0 0 0 0 0 0 0 0 0 0 0 0 0 0 0 0 0 0 0 0 0 0 0 1 0
0 0 0 0 0 0 0 0 0 0 0 0 0 0 0 0 0 0 0 0 0 0 0 0 0 0 0 0 0 0 0 0 0 0 0 0 0 0 0 0 0 0 1 0 1
CIN
0 0 0 0 0 0 0 0 0 0 0 0 0 0 0 0 0 0 0 0 0 0 0 0 0 0 0 0 0 0 0 0 0 0 0 0 0 0 0 0 0 0 0 0 0
0 0 0 0 0 0 0 0 0 0 0 0 0 0 0 0 0 0 0 0 0 0 0 0 0 0 0 0 0 0 0 0 0 0 0 0 0 0 0 0 0 0 0 0 0
0 0 0 0 0 0 0 0 0 0 0 0 0 0 0 0 0 0 0 0 0 0 0 0 0 0 0 0 0 0 0 0 0 0 0 0 0 0 0 0 0 0 0 0 0
0 0 0 0 0 0 0 0 0 0 0 0 0 0 0 0 0 0 0 0 0 0 0 0 0 0 0 0 0 0 0 0 0 0 0 0 0 0 0 0 0 0 0 0 0
0 0 0 0 0 0 0 0 0 0 0 0 0 0 0 0 0 0 0 0 0 0 0 0 0 0 0 0 0 0 0 0 0 0 0 0 0 0 0 0 0 0 0 0 0
0 0 0 0 0 0 0 0 0 0 0 0 0 0 0 0 0 0 0 0 0 0 0 0 0 0 0 0 0 0 0 0 0 0 0 0 0 0 0 0 0 0 0 0 0
0 0 0 0 0 0 0 0 0 0 0 0 0 0 0 0 0 0 0 0 0 0 0 0 0 0 0 0 0 0 0 0 0 0 0 0 0 0 0 0 0 0 0 0 0
0 0 0 0 0 0 0 0 0 0 0 0 0 0 0 0 0 0 0 0 0 0 0 0 0 0 0 0 0 0 0 0 0 0 0 0 0 0 0 0 0 0 0 0 0
0 0 0 0 0 0 0 0 0 0 0 0 0 0 0 0 0 0 0 0 0 0 0 0 0 0 0 0 0 0 0 0 0 0 0 0 0 0 0 0 0 0 0 0 0
0 0 0 0 0 0 0 0 0 0 0 0 0 0 0 0 0 0 0 0 0 0 0 0 0 0 0 0 0 0 0 0 0 0 0 0 0 0 0 0 0 0 0 0 0
0 0 0 0 0 0 0 0 0 0 0 0 0 0 0 0 0 0 0 0 0 0 0 0 0 0 0 0 0 0 0 0 0 0 0 0 0 0 0 0 0 0 0 0 0
0 0 0 0 0 0 0 0 0 0 0 0 0 0 0 0 0 0 0 0 0 0 0 0 0 0 0 0 0 0 0 0 0 0 0 0 0 0 0 0 0 0 0 0 0
0 0 0 0 0 0 0 0 0 0 0 0 0 0 0 0 0 0 0 0 0 0 0 0 0 0 0 0 0 0 0 0 0 0 0 0 0 0 0 0 0 0 0 0 0
0 0 0 0 0 0 0 0 0 0 0 0 0 0 0 0 0 0 0 0 0 0 0 0 0 0 0 0 0 0 0 0 0 0 0 0 0 0 0 0 0 0 0 0 0
0 0 0 0 0 0 0 0 0 0 0 0 0 0 0 0 0 0 0 0 0 0 0 0 0 0 0 0 0 0 0 0 0 0 0 0 0 0 0 0 0 0 0 0 0
0 0 0 0 0 0 0 0 0 0 0 0 0 0 0 0 0 0 0 0 0 0 0 0 0 0 0 0 0 0 0 0 0 0 0 0 0 0 0 0 0 0 0 0 0
0 0 0 0 0 0 0 0 0 0 0 0 0 0 0 0 0 0 0 0 0 0 0 0 0 0 0 0 0 0 0 0 0 0 0 0 0 0 0 0 0 0 0 0 0
0 0 0 0 0 0 0 0 0 0 0 0 0 0 0 0 0 0 0 0 0 0 0 0 0 0 0 0 0 0 0 0 0 0 0 0 0 0 0 0 0 0 0 0 0
0 0 0 0 0 0 0 0 0 0 0 0 0 0 0 0 0 0 0 0 0 0 0 0 0 0 0 0 0 0 0 0 0 0 0 0 0 0 0 0 0 0 0 0 0
0 0 0 0 0 0 0 0 0 0 0 0 0 0 0 0 0 0 0 0 0 0 0 0 0 0 0 0 0 0 0 0 0 0 0 0 0 0 0 0 0 0 0 0 0
0 0 0 0 0 0 0 0 0 0 0 0 0 0 0 0 0 0 0 0 0 0 0 0 0 0 0 0 0 0 0 0 0 0 0 0 0 0 0 0 0 0 0 0 0
0 0 0 0 0 0 0 0 0 0 0 0 0 0 0 0 0 0 0 0 0 0 0 0 0 0 0 0 0 0 0 0 0 0 0 0 0 0 0 0 0 0 0 0 0
0 0 0 0 0 0 0 0 0 0 0 0 0 0 0 0 0 0 0 0 0 0 0 0 0 0 0 0 0 0 0 0 0 0 0 0 0 0 0 0 0 0 0 0 -1
0 0 0 0 0 0 0 0 0 0 0 0 0 0 0 0 0 0 0 0 0 0 0 0 0 0 0 0 0 0 0 0 0 0 0 0 0 0 0 0 0 0 0 0 0
0 0 0 0 0 0 0 0 0 0 0 0 0 0 0 0 0 0 0 0 0 0 0 0 0 0 0 0 0 0 0 0 0 0 0 0 0 0 0 0 0 0 0 0 0
0 0 0 0 0 0 0 0 0 0 0 0 0 0 0 0 0 0 0 0 0 0 0 0 0 0 0 0 0 0 0 0 0 0 0 0 0 0 0 0 0 0 0 0 0
0 0 0 0 0 0 0 0 0 0 0 0 0 0 0 0 0 0 0 0 0 0 0 0 0 0 0 0 0 0 0 0 0 0 0 0 0 0 0 0 0 0 0 0 0
Wind_Speed
20 19 17 16 16 15 15 15 14 14 13 13 12 12 10 8 6 8 11 11 12 14 12 12 15 16 20 20 19 16 17 18 16 18 16 23 21 21 22 25 27 24 25 24 24
21 20 19 17 17 16 16 16 16 15 14 14 13 13 13 12 9 12 12 14 15 14 16 17 18 18 18 20 19 18 17 17 14 16 16 21 21 19 18 23 25 25 27 26 27
22 21 20 19 18 17 17 17 17 16 16 15 15 14 14 14 11 13 15 15 17 16 18 19 20 18 19 19 21 18 17 16 19 18 19 15 25 21 17 25 24 24 25 26 28
23 22 22 20 19 19 18 18 17 17 17 16 15 14 13 13 12 14 17 17 18 20 21 22 22 19 18 19 19 16 18 20 21 23 18 20 21 28 26 22 22 23 24 26 28
25 23 23 22 21 20 19 19 19 18 18 17 15 14 11 9 12 16 18 18 20 21 23 23 24 19 18 18 17 19 17 22 20 24 28 25 25 23 25 23 23 24 26 26 27
25 25 24 23 22 21 21 20 20 19 18 16 15 14 11 11 15 18 20 21 23 24 23 24 21 19 18 17 18 15 17 23 23 18 24 24 23 18 22 20 23 24 24 25 27
25 25 24 24 23 22 22 21 21 19 17 16 15 11 10 12 17 21 23 23 23 24 22 21 20 19 16 17 17 15 14 20 28 22 17 11 29 21 19 19 22 22 23 25 27
26 25 25 24 24 23 23 22 21 18 17 15 14 12 12 16 18 22 24 23 25 21 18 18 18 19 18 17 18 17 18 18 23 27 21 13 18 18 17 18 20 21 23 25 27
25 25 24 24 24 23 23 22 18 16 15 15 13 12 14 18 20 24 25 24 22 20 18 18 18 19 19 18 19 22 22 23 19 30 15 13 14 16 16 17 19 21 24 26 28
25 25 24 24 24 23 23 19 16 15 14 13 13 13 16 20 22 25 25 21 18 15 17 18 18 19 21 20 22 22 22 23 22 24 24 20 17 16 17 18 20 22 25 28 31
26 25 24 23 23 22 18 15 14 13 12 12 13 13 17 20 20 25 23 18 17 17 17 19 18 20 21 20 18 20 20 21 17 16 22 18 17 16 17 20 21 23 26 30 34
25 24 24 23 22 20 15 14 13 11 9 12 14 15 17 18 20 25 22 17 19 17 16 17 18 17 19 19 20 19 20 21 21 17 16 14 15 15 18 21 23 24 28 33 36
25 24 23 22 20 16 13 11 14 11 11 14 15 16 17 18 19 23 21 18 19 17 17 17 16 15 17 21 19 20 21 17 15 15 13 12 13 12 17 21 24 27 29 33 37
25 23 22 21 17 16 13 14 13 12 14 17 17 17 18 15 18 21 21 17 17 17 16 18 16 16 18 20 20 19 18 15 11 13 15 7 17 11 13 22 25 28 32 36 40
24 23 20 16 16 16 14 14 11 12 25 16 16 15 17 15 16 21 22 19 17 17 16 18 17 18 19 19 19 18 18 15 9 11 14 14 16 17 13 23 27 30 34 38 41
23 23 20 18 16 15 16 12 11 17 26 16 14 13 14 17 17 18 19 19 17 18 19 17 16 17 17 16 19 18 17 18 16 14 18 17 17 18 21 23 26 30 35 39 42
20 18 18 18 18 17 13 11 17 24 14 15 14 12 13 16 18 19 19 20 20 20 21 19 18 17 19 17 17 20 19 20 20 17 20 18 21 23 19 22 27 32 36 40 43
20 19 14 16 17 16 13 14 25 18 15 10 9 10 15 17 18 19 19 20 21 20 20 20 21 19 21 19 19 21 19 19 24 23 23 20 23 23 17 21 26 31 35 40 44
19 20 18 18 16 16 15 23 22 15 10 8 9 15 16 15 16 17 19 18 19 20 20 19 18 18 20 20 20 19 21 18 21 22 26 22 22 18 18 25 28 34 39 42 44
22 20 20 19 17 16 18 21 16 12 9 9 15 14 16 14 16 17 17 17 17 19 18 17 20 19 19 17 21 19 16 22 22 27 30 26 27 26 24 28 32 38 40 41 42
21 23 21 19 15 17 23 19 16 13 12 14 13 14 14 15 16 17 17 18 18 18 18 19 19 18 20 22 20 20 20 21 21 22 29 34 29 23 24 27 34 37 37 38 41
21 25 20 18 20 19 20 17 14 14 15 15 15 15 15 15 17 18 18 19 19 18 20 21 20 21 21 21 17 19 19 19 23 25 24 29 32 19 24 28 32 34 35 37 38
24 21 19 18 24 22 20 19 17 17 17 18 18 17 16 16 19 19 19 19 17 18 19 18 21 23 23 21 20 21 21 20 21 23 26 30 30 18 25 29 30 33 35 36 37
24 27 21 22 21 22 21 21 18 18 16 17 15 17 16 19 21 19 20 19 18 17 17 18 20 22 25 24 22 22 22 20 22 27 29 27 30 25 25 31 32 32 34 34 37
26 29 26 27 29 24 20 19 19 21 20 19 20 20 19 21 22 22 21 20 19 17 18 19 23 21 22 22 22 23 24 22 23 26 29 30 29 26 27 28 30 30 31 33 35
30 28 25 25 23 23 23 24 25 23 21 24 22 19 20 22 22 22 19 20 22 17 18 19 23 23 25 24 25 27 26 24 24 24 24 25 29 21 22 24 28 30 30 32 34
19 17 22 25 27 27 24 24 24 19 21 19 17 18 21 21 18 21 19 18 18 18 17 19 21 25 28 27 30 31 26 21 22 20 22 26 22 19 23 27 28 29 29 31 32
Wind_Direction
251 252 258 264 267 272 276 278 279 280 280 280 280 276 250 244 266 314 330 267 269 282 273 280 329 8 26 37 37 49 22 19 26 21 18 10 16 21 25 26 23 25 24 25 28
251 251 253 259 263 268 274 278 279 280 280 279 277 273 245 248 319 345 293 291 289 292 314 330 336 354 28 25 26 26 24 25 32 21 16 15 20 20 30 27 25 27 29 32 35
251 251 251 254 260 265 270 275 278 279 279 278 278 276 255 257 293 300 303 307 317 315 332 341 354 16 14 15 9 21 22 27 16 16 13 28 19 19 35 23 25 27 32 32 29
250 252 252 253 257 262 267 271 275 278 280 279 281 280 268 279 288 288 300 303 321 333 342 343 346 3 8 7 15 22 25 21 17 14 36 28 36 30 34 34 35 37 35 29 24
249 253 254 255 258 262 266 270 273 277 281 280 284 280 286 308 307 290 301 313 329 333 344 351 353 5 5 11 20 18 23 25 34 39 34 39 32 36 29 36 37 35 28 24 23
249 252 255 257 260 264 267 270 274 277 279 281 285 280 299 304 288 303 313 328 337 338 347 356 5 16 14 15 14 30 39 24 20 32 25 25 25 23 25 36 31 27 21 20 18
250 251 256 258 262 265 266 268 272 274 278 282 289 305 329 314 302 310 324 331 343 347 352 4 16 16 26 22 30 36 30 18 4 8 18 19 10 27 31 33 29 19 18 16 14
250 253 256 258 262 266 268 267 270 274 278 282 290 305 308 304 315 325 327 334 335 357 7 14 22 25 23 31 21 19 18 4 6 358 8 22 7 19 23 25 20 15 12 12 11
250 253 257 259 263 266 269 265 269 274 280 281 296 309 310 309 323 327 338 336 342 3 13 20 24 23 22 17 6 7 355 1 3 -0 11 14 27 27 29 26 22 15 11 9 7
248 253 257 261 264 268 268 265 270 275 277 288 306 309 311 312 323 327 338 351 355 9 12 11 15 13 10 2 349 354 355 3 4 13 32 43 48 43 32 23 16 12 11 8 359
247 252 258 261 264 270 268 262 261 270 292 294 305 314 318 323 342 335 347 358 0 1 355 2 4 359 4 13 14 9 7 6 23 34 25 43 49 46 23 14 11 9 5 358 354
244 251 257 261 263 266 263 259 263 269 291 308 317 323 332 343 334 337 358 358 356 353 4 4 360 14 15 15 10 8 7 6 15 33 36 47 41 33 15 9 6 2 357 355 354
242 249 255 259 259 261 259 260 261 271 293 304 318 327 331 348 346 341 355 6 2 360 0 353 3 14 10 4 4 7 3 2 6 18 42 43 17 15 12 5 2 360 0 360 357
238 246 253 255 251 251 255 260 266 279 286 294 306 323 334 349 341 358 357 3 356 355 4 358 7 7 3 1 3 355 8 10 30 12 356 1 348 350 360 353 354 355 356 354 352
236 241 249 251 247 248 253 261 272 287 270 300 313 337 348 347 345 345 356 360 353 352 354 350 354 354 354 359 6 2 5 7 4 353 353 348 342 346 346 342 346 350 352 352 352
236 239 242 245 248 250 255 262 274 272 270 295 318 325 335 343 348 348 355 2 9 356 358 355 6 3 0 6 3 3 4 3 2 356 339 343 339 340 338 341 344 349 350 350 351
234 241 240 243 241 252 255 259 261 265 284 289 304 330 340 334 342 348 350 348 339 334 336 349 353 1 1 359 359 357 357 347 344 345 339 347 338 337 347 349 349 348 349 351 351
229 237 242 245 248 249 250 254 260 270 276 307 321 330 323 330 335 340 340 339 349 346 338 336 335 354 349 356 354 353 353 348 338 339 338 343 335 340 353 353 354 354 352 352 352
224 233 238 249 253 248 247 250 263 267 278 283 306 307 316 328 334 337 340 342 347 351 341 343 345 348 347 349 349 349 345 355 343 343 336 341 343 348 347 348 352 352 352 352 353
223 232 237 252 252 249 248 258 269 275 275 279 292 310 309 322 327 333 337 341 345 345 348 351 341 345 343 352 354 349 1 345 347 337 335 338 336 336 341 343 348 349 352 353 354
226 229 240 251 248 248 246 259 265 269 276 279 291 303 310 317 324 327 332 333 332 339 343 343 341 342 340 338 341 346 346 349 348 344 335 334 340 349 350 352 350 350 354 354 354
225 229 244 242 238 247 248 258 267 264 277 283 286 296 299 308 316 319 322 323 325 331 331 330 334 335 335 343 350 344 344 346 339 338 338 335 335 358 355 354 353 353 355 355 356
223 236 247 241 236 242 251 255 265 264 267 271 279 287 299 303 309 310 315 322 326 327 327 334 330 332 333 340 346 345 345 345 343 340 332 332 336 353 350 351 356 354 355 357 359
228 234 245 242 248 240 244 251 260 266 272 274 281 288 293 297 301 307 310 317 324 329 334 335 329 325 324 330 338 336 336 340 337 331 332 328 332 338 344 347 352 355 357 359 0
235 237 239 237 238 243 249 256 257 259 270 274 278 280 285 295 297 301 306 309 318 327 327 328 323 328 329 332 332 330 328 329 325 326 326 335 336 341 346 350 353 356 357 359 1
233 236 241 247 241 241 253 254 254 261 267 268 275 277 285 292 297 303 307 307 310 319 319 324 321 328 327 332 330 326 325 325 324 325 323 327 331 347 354 358 355 355 357 359 0
244 247 245 248 244 246 251 256 259 263 274 278 277 283 286 296 308 312 317 321 320 319 318 321 323 324 321 329 329 326 334 339 338 339 337 334 344 353 351 351 353 355 357 358 1